Location: Saluda
(35.2377°N, 82.3468°W)
Time: 19:06:13
(UTC+00:00)

Vanguard 3 - Pass Details

Date: 06 October 2022
Orbit: 509 x 3255 km, 33.3° (Epoch: 01 December)

Event Time Altitude Azimuth Distance (km) Brightness Sun altitude
Rises 20:43:06 0° 260° (W) 4,678 12.2 26.9°
Reaches altitude 10° 20:48:26 10° 235° (SW) 4,285 12.7 26.0°
Maximum altitude 20:53:15 13° 211° (SSW) 4,497 12.1 25.1°
Drops below altitude 10° 20:59:00 10° 188° (S) 5,258 11.8 24.1°
Sets 21:07:39 0° 166° (SSE) 6,830 12.0 22.5°
